Location: Linz
(48.3300°N, 14.3000°E)
Time: 23:53:55
(UTC+01:00)

N. Korean satellite - Pass Details

Date: 17 November 2017
Orbit: 460 x 515 km, 97.2° (Epoch: 17 November)

Event Time Altitude Azimuth Distance (km) Brightness Sun altitude
Rises 17:20:00 0° 145° (SE) 2,488 10.0 -9.7°
Reaches altitude 10° 17:22:08 10° 136° (SE) 1,624 9.0 -10.1°
Maximum altitude 17:25:19 34° 70° (ENE) 801 7.1 -10.6°
Drops below altitude 10° 17:28:33 10° 4° (N) 1,660 9.1 -11.1°
Sets 17:30:45 0° 355° (N) 2,555 10.1 -11.4°
